This is the latest recevied weather packets stored in our database for station/object OE6ACM-10. If no packets are shown the sender has not sent any weather packets the latest 10 day(s).
| Time | Temp. | Humidity | Pressure | Rain* | Wind** | Luminosity | Snow |
|---|---|---|---|---|---|---|---|
| 1788455486 | 28.89° C | 100% | 930.8 hPa | - | - | - | - |
| 1788455186 | 29.44° C | 100% | 930.8 hPa | - | - | - | - |
| 1788454886 | 29.44° C | 100% | 930.9 hPa | - | - | - | - |
| 1788454586 | 30° C | 100% | 930.9 hPa | - | - | - | - |
| 1788454286 | 30.56° C | 100% | 930.8 hPa | - | - | - | - |
| 1788453986 | 30.56° C | 100% | 930.8 hPa | - | - | - | - |
| 1788453686 | 31.11° C | 100% | 930.8 hPa | - | - | - | - |
| 1788453409 | 31.11° C | 100% | 930.7 hPa | - | - | - | - |
| 1788453086 | 31.11° C | 95% | 930.7 hPa | - | - | - | - |
| 1788452786 | 31.11° C | 92% | 930.7 hPa | - | - | - | - |
| 1788452486 | 32.78° C | 89% | 930.5 hPa | - | - | - | - |
| 1788452186 | 33.89° C | 85% | 930.7 hPa | - | - | - | - |
| 1788451886 | 35.56° C | 93% | 930.5 hPa | - | - | - | - |
| 1788451586 | 35.56° C | 94% | 930.6 hPa | - | - | - | - |
| 1788451286 | 35.56° C | 84% | 930.6 hPa | - | - | - | - |
| 1788450986 | 35.56° C | 91% | 930.6 hPa | - | - | - | - |
| 1788450686 | 35° C | 89% | 930.6 hPa | - | - | - | - |
| 1788450386 | 35° C | 90% | 930.7 hPa | - | - | - | - |
| 1788450086 | 33.89° C | 90% | 930.6 hPa | - | - | - | - |
| 1788449786 | 34.44° C | 86% | 930.6 hPa | - | - | - | - |
| 1788449486 | 35° C | 77% | 930.6 hPa | - | - | - | - |
| 1788449186 | 36.11° C | 66% | 930.7 hPa | - | - | - | - |
| 1788448886 | 35.56° C | 77% | 930.7 hPa | - | - | - | - |
| 1788448586 | 35° C | 79% | 930.7 hPa | - | - | - | - |
| 1788448286 | 33.89° C | 83% | 930.8 hPa | - | - | - | - |
* Rain since midnight (hover to see other rain measurements)
** Current wind speed in m/s (hover to see current wind gust speed)